Waarnemingen

Advertentie
Mijn weer
Civitavecchia, Italië (16214): temperatuur & dauwpunt: 17.10.2018 23:00:00 - 23.10.2018 23:00:00 (CEST)Civitavecchia, Italië (16214): windsnelheid: 17.10.2018 23:00:00 - 23.10.2018 23:00:00 (CEST)Civitavecchia, Italië (16214): windrichting: 17.10.2018 23:00:00 - 23.10.2018 23:00:00 (CEST)Civitavecchia, Italië (16214): luchtdruk: 17.10.2018 23:00:00 - 23.10.2018 23:00:00 (CEST)Civitavecchia, Italië (16214): zicht: 17.10.2018 23:00:00 - 23.10.2018 23:00:00 (CEST)Civitavecchia, Italië (16214): Zonneschijnduur: 17.10.2018 23:00:00 - 23.10.2018 23:00:00 (CEST)
Datum & Tijd tt [°C] td [°C] ff [km/u] ff [kn] dd ppp [hPa] vv [km] sd [min]
23.10.2018 23:00:00 17,0 8,1 4 2 NNW 1017,8 - 0
23.10.2018 22:00:00 - - - - - - - -
23.10.2018 21:00:00 - - - - - - - -
23.10.2018 20:00:00 18,4 7,2 11 6 NO 1017,3 18 0
23.10.2018 19:00:00 - - - - - - - -
23.10.2018 18:00:00 - - - - - - - -
23.10.2018 17:00:00 22,8 8,1 13 7 N 1016,6 25 60
23.10.2018 16:00:00 - - - - - - - -
23.10.2018 15:00:00 - - - - - - - -
23.10.2018 14:00:00 22,3 8,0 16 9 N 1017,7 25 60
23.10.2018 13:00:00 - - - - - - - -
23.10.2018 12:00:00 - - - - - - - -
23.10.2018 11:00:00 19,7 7,4 21 11 NO 1017,5 20 60
23.10.2018 10:00:00 - - - - - - - -
23.10.2018 09:00:00 - - - - - - - -
23.10.2018 08:00:00 15,5 7,7 15 8 NNW 1017,3 18 0
23.10.2018 07:00:00 - - - - - - - -
23.10.2018 06:00:00 - - - - - - - -
23.10.2018 05:00:00 15,4 7,4 22 12 N 1016,6 - 0
23.10.2018 04:00:00 - - - - - - - -
23.10.2018 03:00:00 - - - - - - - -
23.10.2018 02:00:00 15,3 7,0 9 5 N 1017,0 - 0
23.10.2018 01:00:00 - - - - - - - -
23.10.2018 00:00:00 - - - - - - - -
22.10.2018 23:00:00 16,1 8,1 18 10 NW 1016,7 - 0
22.10.2018 22:00:00 - - - - - - - -
22.10.2018 21:00:00 - - - - - - - -
22.10.2018 20:00:00 16,1 6,4 37 20 N 1014,7 18 0
22.10.2018 19:00:00 - - - - - - - -
22.10.2018 18:00:00 - - - - - - - -
22.10.2018 17:00:00 16,4 6,8 22 12 NNO 1013,0 18 0
22.10.2018 16:00:00 - - - - - - - -
22.10.2018 15:00:00 - - - - - - - -
22.10.2018 14:00:00 18,2 6,5 9 5 ONO 1013,4 40 54
22.10.2018 13:00:00 - - - - - - - -
22.10.2018 12:00:00 - - - - - - - -
22.10.2018 11:00:00 15,7 5,8 29 16 NNO 1013,1 40 60
22.10.2018 10:00:00 - - - - - - - -
22.10.2018 09:00:00 - - - - - - - -
22.10.2018 08:00:00 13,4 5,5 22 12 N 1013,7 25 0
22.10.2018 07:00:00 - - - - - - - -
22.10.2018 06:00:00 - - - - - - - -
22.10.2018 05:00:00 11,6 6,5 26 14 N 1013,7 - 0
22.10.2018 04:00:00 - - - - - - - -
22.10.2018 03:00:00 - - - - - - - -
22.10.2018 02:00:00 12,9 5,0 31 17 N 1014,1 - 0
22.10.2018 01:00:00 - - - - - - - -
22.10.2018 00:00:00 - - - - - - - -
21.10.2018 23:00:00 14,7 7,5 5 3 NNW 1015,7 - 0
21.10.2018 22:00:00 - - - - - - - -
21.10.2018 21:00:00 - - - - - - - -
21.10.2018 20:00:00 19,9 15,4 9 5 N 1014,0 - 0
21.10.2018 19:00:00 - - - - - - - -
21.10.2018 18:00:00 - - - - - - - -
21.10.2018 17:00:00 20,9 16,3 8 4 WNW 1014,6 - 36
21.10.2018 16:00:00 - - - - - - - -
21.10.2018 15:00:00 - - - - - - - -
21.10.2018 14:00:00 21,7 15,6 9 5 Z 1016,6 - 60
21.10.2018 13:00:00 - - - - - - - -
21.10.2018 12:00:00 - - - - - - - -
21.10.2018 11:00:00 21,2 13,5 5 3 ZZO 1018,4 - 60
21.10.2018 10:00:00 - - - - - - - -
21.10.2018 09:00:00 - - - - - - - -
21.10.2018 08:00:00 17,6 6,8 8 4 NO 1018,3 - 0
21.10.2018 07:00:00 - - - - - - - -
21.10.2018 06:00:00 - - - - - - - -
21.10.2018 05:00:00 18,3 7,3 2 1 O 1018,8 - 0
21.10.2018 04:00:00 - - - - - - - -
21.10.2018 03:00:00 - - - - - - - -
21.10.2018 02:00:00 18,8 9,3 4 2 O 1020,1 - 0
21.10.2018 01:00:00 - - - - - - - -
21.10.2018 00:00:00 - - - - - - - -
20.10.2018 23:00:00 19,4 14,2 5 3 O 1020,7 - 0
20.10.2018 22:00:00 - - - - - - - -
20.10.2018 21:00:00 - - - - - - - -
20.10.2018 20:00:00 21,0 16,0 11 6 N 1020,4 20 0
20.10.2018 19:00:00 - - - - - - - -
20.10.2018 18:00:00 - - - - - - - -
20.10.2018 17:00:00 22,6 16,5 13 7 NW 1019,8 20 60
20.10.2018 16:00:00 - - - - - - - -
20.10.2018 15:00:00 - - - - - - - -
20.10.2018 14:00:00 21,5 16,8 9 5 W 1020,9 20 60
20.10.2018 13:00:00 - - - - - - - -
20.10.2018 12:00:00 - - - - - - - -
20.10.2018 11:00:00 21,5 17,1 8 4 WNW 1021,1 18 60
20.10.2018 10:00:00 - - - - - - - -
20.10.2018 09:00:00 - - - - - - - -
20.10.2018 08:00:00 19,2 15,6 5 3 N 1019,4 18 0
20.10.2018 07:00:00 - - - - - - - -
20.10.2018 06:00:00 - - - - - - - -
20.10.2018 05:00:00 19,0 14,1 4 2 O 1018,8 - 0
20.10.2018 04:00:00 - - - - - - - -
20.10.2018 03:00:00 - - - - - - - -
20.10.2018 02:00:00 19,3 14,5 5 3 O 1018,9 - 0
20.10.2018 01:00:00 - - - - - - - -
20.10.2018 00:00:00 - - - - - - - -
19.10.2018 23:00:00 20,5 17,3 13 7 NNW 1018,5 - 0
19.10.2018 22:00:00 - - - - - - - -
19.10.2018 21:00:00 - - - - - - - -
19.10.2018 20:00:00 21,1 16,8 13 7 NNW 1017,1 20 0
19.10.2018 19:00:00 - - - - - - - -
19.10.2018 18:00:00 - - - - - - - -
19.10.2018 17:00:00 22,6 17,8 16 9 WNW 1015,9 20 60
19.10.2018 16:00:00 - - - - - - - -
19.10.2018 15:00:00 - - - - - - - -
19.10.2018 14:00:00 22,8 15,2 15 8 WNW 1016,0 20 60
19.10.2018 13:00:00 - - - - - - - -
19.10.2018 12:00:00 - - - - - - - -
19.10.2018 11:00:00 22,0 16,2 8 4 WZW 1016,6 20 60
19.10.2018 10:00:00 - - - - - - - -
19.10.2018 09:00:00 - - - - - - - -
19.10.2018 08:00:00 18,9 13,9 2 1 ZZO 1014,9 18 0
19.10.2018 07:00:00 - - - - - - - -
19.10.2018 06:00:00 - - - - - - - -
19.10.2018 05:00:00 19,7 13,6 5 3 O 1014,4 - 0
19.10.2018 04:00:00 - - - - - - - -
19.10.2018 03:00:00 - - - - - - - -
19.10.2018 02:00:00 20,9 13,9 9 5 NNO 1013,8 - 0
19.10.2018 01:00:00 - - - - - - - -
19.10.2018 00:00:00 - - - - - - - -
18.10.2018 23:00:00 20,6 15,5 8 4 O 1014,3 - 0
18.10.2018 22:00:00 - - - - - - - -
18.10.2018 21:00:00 - - - - - - - -
18.10.2018 20:00:00 21,4 15,7 9 5 N 1012,7 15 0
18.10.2018 19:00:00 - - - - - - - -
18.10.2018 18:00:00 - - - - - - - -
18.10.2018 17:00:00 24,0 17,2 9 5 NW 1012,1 20 60
18.10.2018 16:00:00 - - - - - - - -
18.10.2018 15:00:00 - - - - - - - -
18.10.2018 14:00:00 23,6 15,7 9 5 Z 1012,8 25 60
18.10.2018 13:00:00 - - - - - - - -
18.10.2018 12:00:00 - - - - - - - -
18.10.2018 11:00:00 23,2 16,1 8 4 Z 1013,5 20 60
18.10.2018 10:00:00 - - - - - - - -
18.10.2018 09:00:00 - - - - - - - -
18.10.2018 08:00:00 20,6 15,3 8 4 NNW 1012,5 18 0
18.10.2018 07:00:00 - - - - - - - -
18.10.2018 06:00:00 - - - - - - - -
18.10.2018 05:00:00 20,8 14,5 8 4 ONO 1012,7 - 0
18.10.2018 04:00:00 - - - - - - - -
18.10.2018 03:00:00 - - - - - - - -
18.10.2018 02:00:00 20,4 16,3 2 1 OZO 1014,2 - 0
18.10.2018 01:00:00 - - - - - - - -
18.10.2018 00:00:00 - - - - - - - -
17.10.2018 23:00:00 19,9 15,0 4 2 ONO 1015,1 - 0

tt = temperatuur
td = dauwpunt
ff = windsnelheid
dd = windrichting
ppp = luchtdruk
vv = zicht
sd = Zonneschijnduur

Weerstations in de omgeving